Location: Austin, TX
(30.3000°N, 97.7500°W)
Time: 18:52:23
(UTC-06:00)

Daily predictions for brighter satellites

Satellite Brightness Start Highest point End
(mag) Time Altitude Azimuth Time Altitude Azimuth Time Altitude Azimuth
Cosmos 1980 3.7 18:39:05 10° NNW 18:44:48 80° ENE 18:50:28 10° SSE
EO 1 Del DPAF 3.4 18:42:52 10° NNE 18:46:36 52° E 18:50:19 10° S
NOAA 12 4.2 18:42:54 10° SSE 18:48:03 56° ENE 18:53:15 10° N
Gbstr 26 Del rocket 3.0 18:47:13 10° SSW 18:50:51 45° SE 18:54:26 10° ENE
Landsat 4 3.7 18:50:45 10° NNE 18:54:30 88° WNW 18:58:15 10° SSW
Centaur AC-64 4.3 18:53:51 10° SW 18:56:22 24° S 19:02:20 10° ESE
Sakura Rocket 3.9 18:52:16 10° WSW 18:57:13 65° SSE 19:03:57 11° E
COSMOS 2455 4.0 18:56:03 10° SSE 19:00:19 20° ESE 19:04:35 10° ENE
USA 215 3.3 18:55:56 10° NE 19:02:25 66° SE 19:08:53 10° SSW
ALOS 2.6 19:00:11 10° S 19:04:49 70° W 19:09:29 10° NNW
BREEZE-M DEB (TANK) 2.7 19:07:25 10° SSW 19:09:49 49° SE 19:14:17 10° NE
Cosmos 1269 Rocket 4.1 19:06:11 10° S 19:11:21 58° ESE 19:16:32 10° NNE
USA 32 4.2 19:06:47 10° SSE 19:11:47 48° E 19:16:47 10° NNE
Thor Agena Rocket 4.0 19:08:23 10° NNE 19:13:00 35° E 19:17:34 10° SSE
Cosmos 44 3.6 19:09:51 10° NNW 19:14:51 51° ENE 19:20:00 10° SE
FENGYUN 3A 4.3 19:11:28 10° S 19:16:46 60° W 19:22:07 10° NNW
Cosmos 1633 3.5 19:20:33 10° SSW 19:23:59 49° W 19:27:26 10° N
Cosmos 1378 Rocket 3.5 19:20:14 10° N 19:24:38 65° E 19:29:01 10° SSE
Shenzhou-11 Module 4.2 19:23:04 10° W 19:25:32 23° SW 19:28:00 10° SSE
SJ-6B 3.4 19:23:34 10° SE 19:26:54 31° ENE 19:30:18 10° N
Cosmos 1782 Rocket 3.5 19:23:07 10° S 19:27:31 65° E 19:31:53 10° NNE
Cosmos 2237 Rocket 3.5 19:23:29 10° NW 19:28:44 42° WSW 19:33:59 10° S
H-2A R/B 2.8 19:25:10 10° S 19:29:05 83° WSW 19:33:00 10° NNW
Tsikada Rocket 4.1 19:23:10 10° SSE 19:29:22 55° E 19:35:35 10° NNE
CENTAUR R/B 3.6 19:24:18 10° SW 19:29:49 42° NW 19:36:02 10° NNE
Sich 1 Rocket 3.8 19:29:02 10° S 19:33:33 76° W 19:38:02 10° N
SL-16 R/B 2.1 19:28:01 10° NNW 19:33:41 75° ENE 19:39:19 10° SSE
ERS-2 2.0 19:30:53 10° SSE 19:34:32 73° ENE 19:38:13 10° N
GPS 2-05 Rocket1 2.4 19:33:18 10° WSW 19:36:28 76° SSE 19:37:12 48° E
Lacrosse 5 3.5 19:32:29 10° WNW 19:37:01 34° WSW 19:41:31 10° S
Okean 1 3.1 19:43:28 10° N 19:47:27 86° E 19:51:24 10° S
Okean 2 Rocket 2.9 19:43:43 10° S 19:48:02 65° E 19:52:24 10° NNE
CZ-2D R/B 3.3 19:47:41 38° SE 19:48:50 53° ENE 19:52:37 10° N
CRYOSAT 2 4.2 19:44:21 10° N 19:49:13 76° E 19:54:03 10° S
Cosmos 1464 Rocket 4.2 19:43:30 10° N 19:49:35 70° W 19:55:41 10° S
Iridium 4 Rocket 3.7 19:47:27 10° N 19:52:03 59° W 19:56:17 10° SSW
FALCON 9 R/B 4.4 19:44:08 10° WNW 19:52:05 79° NNE 20:10:12 27° E
Cosmos 1603 4.4 19:47:15 10° N 19:52:03 32° ENE 19:52:03 32° ENE
Cosmos 2251 Rocket 3.9 19:52:14 10° S 19:56:36 40° ESE 19:56:36 40° ESE
Geosat 3.8 19:54:24 17° NNE 19:58:20 72° ESE 20:03:20 10° SSW
Cosmos 1602 4.4 19:55:57 10° SSW 19:59:47 56° W 20:03:37 10° N
Cosmos 2263 Rocket 2.2 19:58:51 10° S 20:04:13 52° ESE 20:04:55 49° ENE
OAO 2 Rocket 3.7 20:03:26 10° WNW 20:08:13 48° N 20:08:55 44° NNE
Cosmos 921 Rocket 3.4 20:07:47 10° NNW 20:12:15 66° WSW 20:14:59 22° S
Tiangong 2 2.9 20:12:41 10° WNW 20:14:35 31° W 20:14:35 31° W
Meteor 1-5 Rocket 4.1 20:19:06 10° S 20:24:53 80° E 20:30:51 10° N
Meteor 1-11 Rocket 4.0 20:22:36 10° SSW 20:28:04 63° W 20:33:41 10° N
Meteor 2-4 Rocket 3.7 20:22:32 10° N 20:27:29 64° NNE 20:27:29 64° NNE
Meteor 1-19 Rocket 4.4 20:23:35 10° NNW 20:29:05 69° W 20:34:37 10° S
SeaSat 1 2.7 20:30:04 61° NNW 20:30:04 61° NNW 20:34:06 10° NNW
Cosmos 1634 Rocket 4.2 20:32:02 10° N 20:36:51 57° NNE 20:36:51 57° NNE
Envisat 3.8 20:33:58 10° S 20:38:50 48° W 20:43:45 10° NNW
Resurs 01 Rocket 4.0 20:43:36 16° NNW 20:43:36 16° NNW 20:44:30 10° NNW
COSMOS 2455 3.7 20:40:03 10° SW 20:45:48 47° WNW 20:48:54 26° N
Sakura Rocket 4.2 20:45:32 10° W 20:51:23 76° SW 20:51:23 76° SW
CZ-4C R/B 4.1 20:52:06 10° NNW 20:55:55 29° N 20:55:55 29° N
CZ-3C R/B 4.1 21:55:16 10° WSW 22:45:41 14° ESE 22:57:46 10° ESE
